Previsão horária em Abla

Hoje, 20 Janeiro, Quarta-feira

Tempo Temperatura Precipitação Vento Pressão Humidade
00:00 -1°C° 0 mm 2 m/s 621 mmHg 45%
01:00 -1°C° 0 mm 2 m/s 621 mmHg 44%
02:00 -1°C° 0 mm 2 m/s 620 mmHg 43%
03:00 -1°C° 0 mm 2 m/s 620 mmHg 42%
04:00 -1°C° 0 mm 2 m/s 620 mmHg 42%
05:00 -1°C° 0 mm 2 m/s 619 mmHg 42%
06:00 -1°C° 0 mm 2 m/s 619 mmHg 42%
07:00 +1°C° 0 mm 2 m/s 619 mmHg 43%
08:00 +2°C° 0 mm 2 m/s 620 mmHg 44%
09:00 +2°C° 0 mm 3 m/s 620 mmHg 45%
10:00 +3°C° 0 mm 3 m/s 620 mmHg 44%
11:00 +4°C° 0 mm 3 m/s 621 mmHg 43%
12:00 +5°C° 0 mm 3 m/s 621 mmHg 42%
13:00 +4°C° 0.3 mm 3 m/s 620 mmHg 51%
14:00 +4°C° 0.3 mm 3 m/s 620 mmHg 60%
15:00 +3°C° 0.3 mm 3 m/s 619 mmHg 69%
16:00 +3°C° 0.3 mm 3 m/s 619 mmHg 76%
17:00 +2°C° 0.3 mm 3 m/s 618 mmHg 82%
18:00 +1°C° 0.3 mm 3 m/s 618 mmHg 88%
19:00 +1°C° 0.4 mm 3 m/s 618 mmHg 89%
20:00 +1°C° 0.4 mm 3 m/s 618 mmHg 90%
21:00 +1°C° 0.4 mm 3 m/s 618 mmHg 91%
22:00 0°C° 0.1 mm 3 m/s 619 mmHg 90%
23:00 -1°C° 0.1 mm 4 m/s 619 mmHg 89%

Amanhã, 21 Janeiro, Quinta-feira

Tempo Temperatura Precipitação Vento Pressão Humidade
00:00 -1°C° 0.1 mm 4 m/s 619 mmHg 88%
01:00 -1°C° 0 mm 4 m/s 619 mmHg 86%
02:00 -1°C° 0 mm 4 m/s 619 mmHg 84%
03:00 -1°C° 0 mm 5 m/s 619 mmHg 82%
04:00 -1°C° 0 mm 4 m/s 620 mmHg 83%
05:00 -1°C° 0 mm 4 m/s 620 mmHg 84%
06:00 0°C° 0 mm 3 m/s 620 mmHg 85%
07:00 0°C° 0 mm 4 m/s 621 mmHg 82%
08:00 +1°C° 0 mm 4 m/s 621 mmHg 80%
09:00 +1°C° 0 mm 4 m/s 622 mmHg 77%
10:00 +3°C° 0 mm 4 m/s 622 mmHg 71%
11:00 +5°C° 0 mm 4 m/s 623 mmHg 65%
12:00 +6°C° 0 mm 4 m/s 623 mmHg 58%
13:00 +6°C° 0 mm 4 m/s 623 mmHg 59%
14:00 +6°C° 0 mm 5 m/s 623 mmHg 60%
15:00 +6°C° 0 mm 5 m/s 622 mmHg 62%
16:00 +5°C° 0 mm 4 m/s 622 mmHg 67%
17:00 +4°C° 0 mm 4 m/s 622 mmHg 73%
18:00 +3°C° 0 mm 4 m/s 622 mmHg 79%
19:00 +3°C° 0 mm 4 m/s 621 mmHg 80%
20:00 +1°C° 0 mm 4 m/s 621 mmHg 81%
21:00 +1°C° 0 mm 4 m/s 621 mmHg 83%
22:00 +1°C° 0 mm 4 m/s 621 mmHg 83%
23:00 +2°C° 0 mm 3 m/s 621 mmHg 82%

Depois de amanhã, 22 Janeiro, Sexta-feira

Tempo Temperatura Precipitação Vento Pressão Humidade
00:00 +1°C° 0 mm 3 m/s 620 mmHg 82%
01:00 +1°C° 0 mm 3 m/s 620 mmHg 81%
02:00 +1°C° 0 mm 3 m/s 620 mmHg 81%
03:00 +1°C° 0 mm 4 m/s 619 mmHg 80%
04:00 +1°C° 0.1 mm 4 m/s 619 mmHg 81%
05:00 +1°C° 0.1 mm 5 m/s 619 mmHg 82%
06:00 +2°C° 0.1 mm 5 m/s 620 mmHg 83%
07:00 +2°C° 0.1 mm 6 m/s 620 mmHg 83%
08:00 +3°C° 0.1 mm 6 m/s 620 mmHg 83%
09:00 +3°C° 0.1 mm 7 m/s 620 mmHg 83%
10:00 +4°C° 0.1 mm 7 m/s 620 mmHg 77%
11:00 +5°C° 0.1 mm 8 m/s 621 mmHg 70%
12:00 +6°C° 0.1 mm 8 m/s 621 mmHg 64%
13:00 +6°C° 0 mm 9 m/s 620 mmHg 62%
14:00 +6°C° 0 mm 10 m/s 620 mmHg 61%
15:00 +6°C° 0 mm 10 m/s 620 mmHg 59%
16:00 +3°C° 0 mm 10 m/s 620 mmHg 64%
17:00 +1°C° 0 mm 9 m/s 619 mmHg 69%
18:00 -1°C° 0 mm 8 m/s 619 mmHg 74%
19:00 -1°C° 0 mm 8 m/s 619 mmHg 76%
20:00 -1°C° 0 mm 8 m/s 620 mmHg 78%
21:00 -2°C° 0 mm 8 m/s 620 mmHg 80%
22:00 -2°C° 0 mm 7 m/s 620 mmHg 80%
23:00 -3°C° 0 mm 6 m/s 620 mmHg 80%

23 Janeiro, Sábado

Tempo Temperatura Precipitação Vento Pressão Humidade
00:00 -2°C° 0 mm 5 m/s 620 mmHg 80%
01:00 -4°C° 0 mm 5 m/s 620 mmHg 78%
02:00 -4°C° 0 mm 5 m/s 620 mmHg 76%
03:00 -5°C° 0 mm 5 m/s 620 mmHg 74%
04:00 -5°C° 0 mm 5 m/s 619 mmHg 73%
05:00 -5°C° 0 mm 5 m/s 619 mmHg 72%
06:00 -5°C° 0 mm 5 m/s 619 mmHg 71%
07:00 -4°C° 0 mm 5 m/s 620 mmHg 69%
08:00 -4°C° 0 mm 5 m/s 620 mmHg 66%
09:00 -2°C° 0 mm 5 m/s 621 mmHg 64%
10:00 -1°C° 0 mm 5 m/s 621 mmHg 59%
11:00 +1°C° 0 mm 5 m/s 622 mmHg 54%
12:00 +2°C° 0 mm 5 m/s 622 mmHg 49%
13:00 +3°C° 0 mm 4 m/s 622 mmHg 49%
14:00 +4°C° 0 mm 4 m/s 622 mmHg 48%
15:00 +4°C° 0 mm 4 m/s 622 mmHg 47%
16:00 +3°C° 0 mm 4 m/s 621 mmHg 56%
17:00 0°C° 0 mm 4 m/s 620 mmHg 65%
18:00 -1°C° 0 mm 4 m/s 620 mmHg 74%
19:00 -1°C° 0 mm 4 m/s 620 mmHg 76%
20:00 -1°C° 0 mm 4 m/s 620 mmHg 77%
21:00 0°C° 0 mm 4 m/s 620 mmHg 78%
22:00 0°C° 0 mm 4 m/s 620 mmHg 78%
23:00 0°C° 0 mm 5 m/s 619 mmHg 79%

24 Janeiro, Domingo

Tempo Temperatura Precipitação Vento Pressão Humidade
00:00 +1°C° 0 mm 5 m/s 619 mmHg 79%
01:00 +1°C° 0.1 mm 6 m/s 619 mmHg 80%
02:00 0°C° 0.1 mm 7 m/s 619 mmHg 81%
03:00 0°C° 0.1 mm 8 m/s 618 mmHg 83%
04:00 0°C° 0.1 mm 8 m/s 618 mmHg 83%
05:00 0°C° 0.1 mm 8 m/s 618 mmHg 84%
06:00 0°C° 0.1 mm 8 m/s 618 mmHg 84%
07:00 +1°C° 0.1 mm 8 m/s 618 mmHg 83%
08:00 +2°C° 0.1 mm 9 m/s 619 mmHg 82%
09:00 +2°C° 0.1 mm 9 m/s 620 mmHg 81%
10:00 +3°C° 0 mm 9 m/s 620 mmHg 76%
11:00 +5°C° 0 mm 9 m/s 621 mmHg 71%
12:00 +6°C° 0 mm 8 m/s 621 mmHg 65%
13:00 +6°C° 0 mm 7 m/s 621 mmHg 61%
14:00 +7°C° 0 mm 6 m/s 621 mmHg 56%
15:00 +7°C° 0 mm 5 m/s 621 mmHg 51%
16:00 +5°C° 0 mm 5 m/s 621 mmHg 54%
17:00 +4°C° 0 mm 4 m/s 621 mmHg 57%
18:00 +2°C° 0 mm 3 m/s 620 mmHg 61%
19:00 +2°C° 0 mm 3 m/s 621 mmHg 59%
20:00 +2°C° 0 mm 3 m/s 621 mmHg 58%
21:00 +1°C° 0 mm 3 m/s 621 mmHg 57%
22:00 +1°C° 0 mm 3 m/s 621 mmHg 59%
23:00 +2°C° 0 mm 2 m/s 621 mmHg 61%

25 Janeiro, Segunda-feira

Tempo Temperatura Precipitação Vento Pressão Humidade
00:00 +2°C° 0 mm 2 m/s 621 mmHg 63%
01:00 +2°C° 0 mm 2 m/s 621 mmHg 66%
02:00 0°C° 0 mm 3 m/s 621 mmHg 68%
03:00 0°C° 0 mm 3 m/s 621 mmHg 71%
04:00 0°C° 0 mm 3 m/s 620 mmHg 73%
05:00 -1°C° 0 mm 2 m/s 620 mmHg 75%
06:00 -1°C° 0 mm 2 m/s 620 mmHg 78%
07:00 +1°C° 0 mm 2 m/s 621 mmHg 72%
08:00 +2°C° 0 mm 2 m/s 622 mmHg 67%
09:00 +3°C° 0 mm 2 m/s 623 mmHg 62%
10:00 +5°C° 0 mm 1 m/s 624 mmHg 56%
11:00 +6°C° 0 mm 1 m/s 625 mmHg 51%
12:00 +8°C° 0 mm 1 m/s 625 mmHg 45%
13:00 +8°C° 0 mm 1 m/s 625 mmHg 47%
14:00 +8°C° 0 mm 1 m/s 625 mmHg 49%
15:00 +7°C° 0 mm 2 m/s 625 mmHg 51%
16:00 +7°C° 0 mm 1 m/s 625 mmHg 58%
17:00 +5°C° 0 mm 1 m/s 624 mmHg 65%
18:00 +4°C° 0 mm 1 m/s 624 mmHg 72%
19:00 +4°C° 0 mm 1 m/s 625 mmHg 73%
20:00 +3°C° 0 mm 1 m/s 625 mmHg 74%
21:00 +2°C° 0 mm 2 m/s 625 mmHg 75%
22:00 +2°C° 0 mm 1 m/s 625 mmHg 75%
23:00 +2°C° 0 mm 1 m/s 625 mmHg 75%
Mostrar mais